Terminal Aerodrome Forecast
Issued by NWS

Current Version | Previous Version | Graphics & Text | Print | Product List | Glossary On
Versions: 1 2 3 4 5 6 7 8 9 10 11 12 13 14 15 16 17 18 19 20 21 22 23 24 25 26 27 28 29 30 31 32 33 34 35 36 37 38 39 40
000
FTUS41 KRNK 011724
TAFLWB
TAF
KLWB 011724Z 0118/0218 22005KT P6SM SCT040 BKN080
     FM012300 00000KT P6SM SCT040
     FM020400 00000KT 4SM BR SCT005
     FM020700 00000KT 1/4SM FG OVC001
     FM021400 25003KT 4SM BR SCT010=

USA.gov is the U.S. government's official web portal to all federal, state and local government web resources and services.